Location: Chmeln�
(49.6483°N, 14.9871°E)
Time: 05:47:03
(UTC+00:00)

Terra - Pass Details

Date: 18 September 2020
Orbit: 701 x 703 km, 98.2° (Epoch: 22 October)

Event Time Altitude Azimuth Distance (km) Brightness Sun altitude
Exits shadow 20:19:12 33° 20° (NNE) 1,179 3.1 -29.1°
Drops below altitude 10° 20:22:08 10° 356° (N) 2,184 4.9 -29.4°
Sets 20:24:28 0° 351° (N) 3,106 5.9 -29.7°
